Regional Weather Roundup
Issued by NWS Jackson, KY

Home | Current Version | Previous Version | Text Only | Print | Product List | Glossary On
Versions: 1 2 3 4 5 6 7 8 9 10 11 12 13 14 15 16 17 18 19 20 21 22 23 24 25 26 27
000
ASUS43 KJKL 121410
RWRJKL

EAST KENTUCKY HOURLY WEATHER ROUNDUP
NATIONAL WEATHER SERVICE JACKSON KY
900 AM EST TUE DEC 12 2017

NOTE: "FAIR" INDICATES FEW OR NO CLOUDS BELOW 12,000 FEET WITH
NO SIGNIFICANT WEATHER AND/OR OBSTRUCTIONS TO VISIBILITY.

* THESE REPORTS ARE NOT UNDER NWS QUALITY CONTROL AND MAY NOT
  REPORT WEATHER SUCH AS PRECIPITATION AND FOG.

KYZ079-080-083-085-087-088-110-112-115-119-120-121500
...EASTERN KENTUCKY...

CITY           SKY/WX    TMP DP  RH WIND       PRES   REMARKS
JACKSON        CLOUDY    37  29  72 W8G25     29.84R WCI  31
LONDON         CLOUDY    38  30  73 NW13G25   29.89R WCI  30
SOMERSET*      CLOUDY    36  32  87 W14G21    29.96R HAZE    WCI  27
MONTICELLO*    CLOUDY    37  30  75 NW16G29   29.97R WCI  28
WILLIAMSBURG*  CLOUDY    39  32  75 NW9G16    29.89R WCI  33
MIDDLESBORO*   CLOUDY    41  32  69 NW13G21   29.87S
HARLAN APT*    CLOUDY    37  30  75 SW14G22   29.84R WCI  29
PIKE CO APT*   CLOUDY    37  30  76 W13G21    29.80S WCI  28
BIG SANDY APT* LGT RAIN  37  31  79 NW7G16    29.82S WCI  32
MOREHEAD APT*  CLOUDY    34  30  86 NW12G23   29.88R WCI  25
$$

KYZ035-036-041-042-044-050-067-078-099-121500
...CENTRAL KENTUCKY...

CITY           SKY/WX    TMP DP  RH WIND       PRES   REMARKS
MT STERLING*   CLOUDY    32  30  93 NW12G20   29.91R WCI  23
FLEMING/MASON* LGT SNOW  32  30  92 W16G24    29.89R WCI  21
DANVILLE*      CLOUDY    32  30  93 NW16G24   29.95R WCI  21
LEXINGTON      MIX PCPN  33  28  81 NW14G23   29.92R WCI  23
FRANKFORT      CLOUDY    33  22  63 NW15G26   29.94R WCI  23
LOUISVILLE     CLOUDY    35  19  52 NW16G23   29.99R WCI  25
LEBANON*       PTSUNNY   34  27  75 NW22G29   29.97R WCI  22
GLASGOW*       CLOUDY    35  30  81 NW12G21   30.01R WCI  27
BOWLING GREEN  CLOUDY    37  28  70 NW10G17   30.04R WCI  30
$$

KYZ091>093-OHZ055-061-077-WVZ005-015-034-035-042-121500
...SOUTHERN OHIO/WEST VIRGINIA...

CITY           SKY/WX    TMP DP  RH WIND       PRES   REMARKS
COVINGTON      LGT SNOW  30  26  85 NW20      29.91R FOG     WCI  17
COLUMBUS       FLURRIES  29  25  85 NW14      29.81R WCI  18
DAYTON         CLOUDY    26  20  77 N18       29.89R WCI  13
WILMINGTON     MIX PCPN  27  22  81 NW20G31   29.86R WCI  13
HUNTINGTON     CLOUDY    37  29  72 W7        29.82R WCI  32
CHARLESTON     LGT SNOW  36  31  82 W9G20     29.77R WCI  29
PINEVILLE*     CLOUDY    39  29  66 MISG      29.77S
BECKLEY        CLOUDY    35  26  69 W14G23    29.68S WCI  26
BLUEFIELD      CLOUDY    34  24  67 NW14G28   29.67F WCI  25
LOGAN CO APT*  LGT SNOW  34  32  93 CALM      29.76S
$$

VAZ002-007-008-TNZ017-027-036-066-071-121500
...SOUTHWEST VIRGINIA/EAST TENNESSEE...

CITY           SKY/WX    TMP DP  RH WIND       PRES   REMARKS
WISE*          CLOUDY    34  32  93 W8        29.77S WCI  27
JONESVILLE*    CLOUDY    39  32  75 W9        29.86R WCI  33
ABINGDON*      CLOUDY    41  30  65 W12G21    29.76S
BRISTOL        CLOUDY    41  31  67 W10       29.80R
MORRISTOWN*    CLOUDY    43  32  65 NW8G16    29.85R
SEVIERVILLE*   CLOUDY    45  30  57 VRB5      29.87R
KNOXVILLE      CLOUDY    43  34  70 W9        29.88R
LAFOLLETTE*    CLOUDY    43  30  61 VRB6G14   29.91S
OAK RIDGE      CLOUDY    44  32  62 W7        29.90R
CROSSVILLE     CLOUDY    37  29  72 NW18G26   29.92R WCI  27
NASHVILLE      CLOUDY    41  33  73 NW16G22   30.04R
$$

...KEY TO REMARKS...
VSB - VISIBILITY IN MILES
WCI - WIND CHILL INDEX
HX  - HEAT INDEX

$$




USA.gov is the U.S. government's official web portal to all federal, state and local government web resources and services.